USA 342

Last updated on Mon Sep 15 2025 00:02:51 GMT+0000 (Coordinated Universal Time)

1 55263U 23008A 25256.59096154 .00000000 00000+0 00000+0 0 9991 2 55263 0.0171 158.7591 0000418 90.2058 340.5120 1.00270067 9743
UTC large
Height (km)
Speed (km/s)
/
Latitude / Longitude
Inclination (degrees)
Orbital Period (minutes)
Azimuth
Elevation
Range (km)
Doppler Factor

Next 0 passes for location: London (51.5072 / 0.1276)

Sorry there are no passes over London.